Dewpoint
-9 -12 -14 -15 -11 -7 -6 -5 -5 -5 -5 -4 -4 -5 -4 -4 -2 -1 1 2 1 1 1 3 6 7 7 6 2 0 1 2 3 3 3 1 -3 -3 6 9 10 10 11
-9 -11 -14 -14 -11 -7 -5 -4 -5 -4 -4 -5 -4 -4 -4 -1 -0 0 1 1 1 1 1 2 6 7 7 6 4 5 6 6 7 7 7 7 5 0 -4 -0 6 8 9
-8 -9 -11 -14 -11 -7 -4 -3 -3 -3 -5 -3 -3 -4 -2 0 0 1 2 2 3 2 1 1 5 4 2 6 6 7 7 6 6 6 2 2 1 4 3 1 -0 -2 -5
-7 -8 -9 -12 -12 -7 -4 -3 -3 -4 -4 -3 -3 -2 -1 0 1 1 3 3 4 4 3 2 3 3 6 8 8 8 7 5 3 5 6 5 3 2 4 4 6 7 7
-7 -7 -7 -9 -12 -8 -5 -3 -2 -3 -3 -2 -1 0 0 1 1 2 3 3 4 4 3 4 4 4 5 4 4 4 2 5 6 6 7 8 8 8 7 6 6 7 7
-7 -6 -6 -6 -9 -10 -6 -5 -4 -2 -3 -2 0 2 3 3 4 3 3 3 4 4 4 4 4 4 3 3 3 3 2 5 6 5 6 6 7 7 5 5 7 8 8
-6 -5 -5 -5 -6 -9 -7 -7 -8 -6 -5 -3 -1 2 3 4 3 3 3 3 3 4 4 4 4 5 4 4 4 3 2 2 6 6 6 6 6 5 3 7 6 8 9
-6 -5 -5 -4 -4 -6 -9 -8 -8 -8 -4 -3 -1 0 1 2 4 1 3 3 1 4 5 4 5 5 5 4 4 4 3 2 3 5 6 6 6 6 8 7 8 8 7
-6 -7 -6 -4 -4 -5 -6 -9 -7 -6 -5 -2 -0 -1 2 2 1 2 3 3 2 4 5 4 4 4 4 4 4 3 2 -1 1 2 5 6 5 2 6 7 8 7 8
-8 -10 -7 -4 -4 -4 -4 -4 -6 -5 -5 -3 -0 1 2 2 2 2 1 1 2 3 4 4 4 4 3 3 3 3 2 1 1 1 3 5 4 1 2 7 7 8 8
-11 -11 -10 -6 -4 -3 -4 -3 -3 -4 -3 -3 -1 -0 -1 0 2 2 2 1 0 2 2 4 4 3 3 3 2 2 2 2 1 -3 2 4 -2 -2 -3 5 6 7 8
-10 -10 -10 -10 -6 -3 -3 -3 -2 -2 -3 -2 -2 1 0 0 -0 2 2 2 2 0 0 4 5 5 4 3 2 3 3 2 -8 -7 3 3 -3 -4 -4 -2 5 6 7
-9 -9 -10 -10 -10 -8 -6 -5 -4 -3 -2 -2 -2 -2 -1 -0 1 0 1 1 1 -0 0 2 3 3 4 3 3 3 1 -9 -11 -3 3 2 -4 -8 -8 -5 -2 5 7
-9 -8 -8 -8 -9 -9 -8 -7 -6 -4 -2 -1 -2 -2 -3 -2 -1 0 1 1 0 -0 -1 -0 1 2 2 3 2 -0 -8 -10 -11 -3 1 -0 -7 -11 -13 -7 -5 -3 3
-8 -8 -8 -8 -8 -8 -8 -7 -6 -4 -2 -1 0 -1 -3 -3 -3 -1 -0 1 1 1 0 -3 -2 -2 -1 -2 -5 -7 -8 -10 -10 -9 -2 -3 -9 -10 -13 -13 -5 -4 -4
-9 -9 -9 -9 -9 -8 -8 -8 -7 -5 -3 -1 0 0 0 -2 -3 -3 -2 -1 0 1 1 -2 -5 -5 -5 -6 -5 -6 -7 -9 -10 -10 -9 -10 -13 -11 -10 -14 -16 -6 -3
-10 -10 -9 -9 -8 -7 -7 -7 -7 -6 -5 -4 -1 0 0 1 -1 -2 -3 -3 -2 -0 1 -2 -3 -5 -6 -5 -6 -7 -8 -9 -10 -10 -10 -10 -13 -12 -11 -11 -15 -13 -4
-11 -11 -10 -10 -9 -9 -8 -8 -6 -5 -5 -4 -3 -2 -1 0 0 0 -1 -3 -3 -2 -1 -1 -3 -5 -6 -7 -7 -8 -9 -9 -10 -11 -10 -11 -11 -12 -12 -10 -14 -15 -9
-11 -11 -11 -11 -11 -10 -10 -9 -9 -8 -7 -6 -5 -3 -2 -1 -1 -0 0 -0 -3 -4 -3 -1 -2 -6 -7 -8 -9 -9 -9 -10 -10 -11 -11 -11 -11 -11 -13 -14 -11 -16 -13
-13 -13 -13 -12 -12 -12 -11 -11 -10 -9 -8 -8 -7 -6 -5 -3 -2 -1 -1 -0 -1 -2 -2 -3 -3 -4 -6 -7 -6 -6 -8 -9 -11 -11 -11 -11 -11 -11 -12 -11 -10 -14 -17
-14 -15 -15 -15 -14 -13 -12 -12 -11 -10 -10 -9 -7 -7 -7 -6 -6 -4 -3 -3 -2 -2 -2 -3 -3 -4 -5 -6 -6 -5 -4 -6 -8 -9 -10 -10 -9 -10 -10 -11 -9 -10 -14
-18 -17 -17 -17 -17 -15 -13 -11 -9 -8 -8 -9 -9 -8 -7 -5 -5 -5 -5 -6 -6 -6 -5 -4 -4 -4 -4 -4 -4 -3 -3 -4 -5 -7 -7 -8 -7 -9 -8 -9 -11 -13 -12
-15 -18 -22 -24 -23 -20 -16 -12 -9 -7 -6 -5 -4 -5 -6 -6 -6 -5 -4 -4 -5 -4 -4 -4 -4 -4 -4 -4 -2 -2 -2 -2 -2 -4 -5 -6 -7 -8 -7 -8 -10 -12 -12
-20 -23 -27 -29 -28 -26 -22 -18 -12 -8 -5 -4 -4 -4 -4 -3 -3 -3 -4 -4 -4 -3 -3 -3 -3 -3 -3 -3 -2 -2 -2 -2 -2 -3 -3 -4 -6 -8 -7 -7 -9 -11 -13
-21 -24 -27 -28 -28 -27 -27 -26 -25 -22 -16 -9 -4 -3 -2 -2 -2 -2 -2 -3 -3 -3 -2 -3 -3 -3 -3 -3 -3 -2 -3 -2 -2 -3 -3 -2 -4 -5 -6 -7 -8 -9 -12
-24 -27 -28 -27 -27 -26 -26 -26 -26 -27 -27 -26 -23 -21 -17 -15 -13 -10 -7 -6 -8 -9 -6 -4 -3 -2 -3 -3 -3 -2 -2 -2 -2 -2 -3 -3 -3 -3 -3 -6 -12 -14 -10
Wind_Speed
15 16 17 18 19 20 20 19 19 18 19 18 17 16 15 14 11 10 8 9 10 10 9 8 7 6 7 13 15 15 12 12 13 13 13 16 18 20 23 23 21 20 17
15 16 18 18 19 19 19 19 19 20 20 19 16 14 13 10 9 8 8 8 8 8 8 6 5 2 5 7 5 6 8 8 7 8 9 11 12 14 17 21 25 27 27
14 16 18 18 18 19 19 18 18 18 17 15 14 13 9 7 7 7 8 9 9 9 8 4 0 5 7 6 2 2 2 6 8 11 11 10 10 8 11 14 17 21 24
14 15 17 17 17 18 19 19 19 19 17 14 12 11 7 5 6 7 8 10 10 10 10 7 6 6 5 6 6 6 6 7 9 8 9 8 8 9 12 13 14 16 18
13 15 16 17 18 18 18 18 17 18 16 12 8 8 6 6 6 7 7 9 10 10 10 8 7 4 3 3 7 9 9 8 5 5 7 7 7 7 10 13 16 17 18
13 15 16 17 17 17 16 16 17 17 15 12 6 4 3 4 6 5 6 8 8 8 8 8 6 5 6 6 6 6 9 11 11 9 8 10 12 13 15 14 15 18 22
14 15 16 16 16 16 16 17 17 16 15 10 6 3 3 3 3 4 5 6 7 5 6 6 7 7 7 7 7 8 10 12 13 13 12 12 13 14 16 18 19 21 25
16 17 17 16 15 15 15 15 16 16 14 14 10 5 3 4 5 9 5 6 6 4 3 3 5 7 8 10 10 10 11 13 13 13 15 14 15 14 16 16 20 22 28
17 18 16 15 14 14 14 14 14 15 14 12 11 7 3 3 14 2 4 5 5 3 3 2 3 5 8 10 13 12 15 18 16 14 15 15 15 15 13 16 20 23 26
17 16 15 13 13 13 12 13 13 13 13 11 9 9 3 4 5 8 3 4 6 5 6 5 6 6 7 10 12 15 18 20 21 18 16 15 14 13 11 12 17 22 23
14 15 14 13 12 12 12 12 12 12 12 11 9 9 8 5 3 5 13 12 6 6 8 8 9 9 7 11 13 17 20 24 25 20 17 15 15 12 11 10 12 15 19
13 14 14 14 12 12 12 13 13 12 12 11 10 9 9 7 6 6 12 16 17 6 8 4 7 9 10 13 17 20 24 27 23 16 14 15 15 13 11 10 10 12 12
14 14 14 13 13 13 13 13 14 13 13 12 11 10 10 10 11 10 12 15 16 16 7 8 9 11 13 18 23 25 26 24 20 13 11 14 13 13 12 12 10 9 10
15 14 13 13 13 13 13 14 14 13 13 13 12 12 11 10 11 12 13 14 17 12 14 9 10 14 18 21 20 24 22 21 19 14 12 14 12 12 12 12 11 9 9
15 15 15 15 14 14 14 15 14 13 14 13 13 13 13 11 12 13 13 13 12 9 17 8 9 8 13 19 20 18 18 19 17 17 13 15 13 12 13 11 11 11 9
13 13 14 14 14 14 15 15 15 14 14 13 13 14 14 13 13 14 14 14 15 16 18 18 19 21 18 18 16 16 17 17 17 17 17 18 16 12 15 14 13 12 9
10 10 10 11 11 11 12 13 14 14 14 14 14 15 15 15 14 14 15 16 17 18 24 27 24 20 20 19 17 17 17 17 16 16 16 17 16 15 16 16 13 12 10
9 10 10 10 11 11 11 12 12 13 14 15 14 16 16 16 17 16 17 17 18 18 23 27 27 25 22 20 21 21 17 16 18 17 17 17 17 17 16 16 14 13 10
7 8 9 9 10 11 11 12 13 13 14 14 15 16 16 17 18 17 19 19 19 19 21 25 26 26 27 23 22 20 20 20 19 19 19 19 17 17 18 15 13 11 11
7 9 10 11 12 12 13 13 13 14 14 14 15 15 16 16 18 18 19 19 20 21 21 24 26 26 26 25 25 24 24 20 20 19 19 20 19 16 14 14 12 10 10
8 9 10 12 13 13 14 14 14 14 14 14 14 15 16 17 18 19 20 21 21 22 23 25 27 28 27 25 24 25 26 23 22 20 18 15 15 14 15 15 14 14 11
8 10 12 13 13 14 14 15 15 15 15 16 15 14 15 16 16 18 19 21 22 23 23 24 25 27 28 25 24 24 26 25 25 22 20 18 20 19 19 18 17 17 15
9 11 13 14 14 15 15 15 15 15 15 15 14 14 14 14 16 16 15 16 17 18 19 22 24 26 26 25 24 26 26 27 27 24 26 30 25 22 19 17 17 17 17
11 12 13 13 13 14 14 15 15 15 15 15 15 15 15 16 16 17 17 17 16 15 15 16 19 23 24 24 24 24 26 28 29 28 25 31 28 23 19 17 17 16 16
11 12 13 13 14 14 14 15 16 16 16 15 15 16 17 17 17 19 20 22 22 18 15 15 17 19 21 22 22 23 26 26 29 30 25 25 29 24 19 15 16 18 16
12 12 12 13 14 14 15 15 15 16 16 16 15 16 17 19 20 21 23 24 26 25 27 25 19 17 18 20 21 23 24 26 26 28 21 16 21 14 9 11 8 10 15
Wind_Direction
352 354 353 351 352 350 348 347 346 344 345 345 340 337 338 337 339 344 340 328 323 318 318 318 313 306 291 280 290 306 315 311 307 301 292 276 267 259 251 255 262 268 273
356 355 354 355 353 350 350 349 348 347 347 341 338 339 341 350 350 350 350 351 347 341 338 338 358 309 304 327 350 5 350 332 318 310 302 296 292 279 268 262 260 259 261
356 355 354 353 352 352 351 350 348 346 347 348 344 344 339 352 3 10 11 11 7 6 0 356 331 3 23 24 41 0 324 316 321 317 317 314 310 307 301 290 284 276 267
353 351 351 352 353 353 353 350 348 349 354 352 355 12 31 20 23 25 26 23 21 16 16 27 47 64 59 56 51 38 13 331 316 352 354 338 324 303 296 296 294 298 291
345 347 348 350 353 354 353 352 352 352 354 359 5 20 37 45 27 25 20 21 23 19 27 41 53 42 29 331 316 307 316 9 323 315 335 352 350 331 308 299 290 291 289
338 342 345 347 349 350 352 355 357 356 356 0 357 8 25 12 358 352 12 21 18 23 34 44 34 21 4 350 350 352 351 14 8 355 320 295 306 310 305 303 318 317 305
332 335 336 337 341 344 351 355 357 358 357 4 9 328 324 328 355 342 342 355 358 9 25 22 34 29 14 6 354 350 347 350 4 0 353 347 328 338 345 342 331 319 312
326 326 325 326 330 339 345 350 354 358 357 357 4 1 345 288 270 302 296 338 351 349 339 15 25 10 6 354 347 346 341 342 347 356 359 353 350 354 356 343 336 327 325
320 319 319 318 320 328 335 342 351 353 357 358 354 12 11 330 337 342 285 307 334 306 300 314 301 328 338 348 350 347 348 351 347 353 353 355 347 351 355 348 350 342 338
317 319 320 318 315 316 322 334 343 348 350 355 359 350 355 324 340 324 300 279 339 293 275 275 272 280 308 324 334 335 340 347 346 348 350 347 344 339 350 353 359 358 360
313 316 319 317 311 309 312 320 329 336 336 340 344 338 342 323 304 304 306 320 313 277 309 278 270 274 291 304 305 319 327 330 331 331 343 347 328 325 333 2 358 351 3
308 309 313 315 312 307 306 307 311 319 321 320 323 323 321 312 286 282 295 309 317 319 318 314 269 275 284 294 307 314 321 324 325 324 339 335 326 323 318 335 354 355 350
304 306 307 307 308 306 302 301 302 305 307 307 307 306 304 299 290 289 286 301 306 313 310 255 258 273 281 296 302 311 320 324 330 330 337 329 319 322 317 312 322 337 340
301 302 302 303 305 306 303 300 299 299 298 300 301 301 299 298 288 286 289 298 309 314 311 282 273 270 276 290 305 313 320 327 334 331 325 328 322 322 328 317 317 320 333
302 303 302 302 300 299 300 300 300 299 294 298 297 298 298 299 290 284 282 284 287 293 309 315 298 300 300 302 307 311 319 326 333 335 330 328 331 327 327 331 321 321 319
308 308 308 308 305 302 299 299 299 297 293 294 294 294 296 298 293 287 283 278 274 274 271 282 294 300 304 305 308 308 314 319 325 327 330 333 339 336 337 331 328 325 326
312 314 317 318 317 311 306 303 301 298 296 292 292 292 294 294 293 289 285 281 277 274 276 287 290 298 300 301 301 300 306 309 313 317 320 320 324 332 335 326 329 324 326
331 335 337 336 331 325 321 316 310 305 303 299 295 290 293 290 290 289 287 283 280 280 281 286 293 296 296 298 300 300 300 300 304 305 309 313 316 316 320 323 325 323 326
348 349 350 351 345 338 338 330 323 319 313 308 303 298 296 291 290 289 286 284 283 281 280 284 290 296 301 303 300 297 298 297 298 298 300 305 306 311 313 313 318 322 318
2 360 359 358 356 351 348 341 335 329 322 315 309 303 298 292 290 289 287 288 287 285 284 283 287 291 295 301 302 305 301 299 295 291 293 296 297 301 305 307 308 310 308
355 355 355 352 350 346 342 338 337 334 329 324 318 310 303 298 294 293 291 290 288 287 288 288 288 290 291 295 298 302 302 303 300 300 296 293 288 289 300 301 300 302 302
344 341 338 338 337 335 335 334 334 335 334 332 330 325 318 311 305 299 295 293 293 293 292 289 289 290 293 297 297 295 295 298 300 300 295 286 285 287 289 287 289 288 286
327 327 328 330 330 330 329 327 328 329 331 332 333 333 332 327 322 317 311 306 301 296 293 293 292 292 294 295 294 291 292 291 291 291 291 293 294 292 285 277 279 276 276
321 326 329 329 330 329 326 324 323 323 325 326 327 328 329 331 332 330 327 322 316 313 304 294 291 293 292 292 288 287 286 287 289 287 288 289 293 294 284 277 269 267 265
315 318 323 329 330 330 329 327 325 323 319 317 317 317 318 319 320 319 317 315 312 311 306 303 301 297 294 292 290 284 281 284 287 289 292 284 289 302 291 286 269 262 260
310 317 322 323 322 323 324 323 322 321 320 320 319 316 312 310 309 308 307 309 310 309 307 306 299 295 300 299 292 284 284 280 281 288 293 283 291 297 307 293 290 277 256
Height
1554 1551 1549 1546 1543 1541 1538 1536 1533 1530 1528 1526 1523 1521 1519 1517 1516 1514 1514 1513 1512 1511 1511 1511 1512 1512 1512 1510 1509 1509 1509 1508 1508 1507 1506 1506 1507 1508 1510 1512 1512 1513 1513
1552 1550 1548 1545 1543 1540 1537 1535 1532 1529 1527 1524 1521 1520 1518 1517 1515 1514 1514 1513 1512 1510 1510 1510 1511 1510 1510 1509 1509 1507 1508 1507 1507 1507 1505 1504 1504 1504 1505 1505 1506 1507 1508
1552 1550 1547 1545 1542 1539 1537 1534 1531 1529 1526 1523 1520 1518 1517 1517 1516 1515 1515 1514 1513 1511 1510 1509 1509 1509 1509 1509 1509 1507 1506 1507 1507 1506 1503 1502 1502 1502 1501 1501 1501 1501 1501
1551 1549 1547 1544 1542 1539 1536 1533 1530 1528 1525 1523 1520 1518 1517 1517 1517 1516 1516 1515 1514 1512 1511 1510 1510 1509 1509 1509 1508 1507 1505 1505 1505 1504 1502 1500 1499 1499 1499 1498 1497 1496 1495
1550 1548 1546 1543 1541 1538 1535 1532 1530 1527 1524 1522 1521 1520 1519 1519 1519 1518 1517 1516 1515 1514 1513 1512 1511 1511 1510 1510 1508 1507 1506 1504 1503 1502 1500 1499 1497 1496 1495 1494 1493 1492 1491
1549 1547 1544 1542 1540 1537 1535 1532 1529 1526 1523 1522 1521 1521 1521 1520 1520 1519 1518 1516 1515 1515 1514 1512 1512 1511 1510 1509 1508 1506 1505 1504 1503 1501 1498 1497 1495 1494 1492 1490 1489 1488 1486
1547 1545 1543 1541 1538 1536 1534 1531 1528 1526 1524 1522 1521 1521 1520 1520 1520 1519 1518 1517 1516 1515 1514 1513 1513 1512 1510 1509 1507 1506 1504 1503 1502 1500 1497 1495 1492 1490 1489 1487 1485 1483 1480
1545 1543 1541 1539 1537 1535 1533 1531 1528 1526 1524 1521 1521 1519 1519 1520 1520 1518 1518 1517 1516 1515 1514 1513 1512 1511 1510 1509 1507 1505 1504 1502 1500 1498 1495 1492 1490 1488 1487 1485 1482 1478 1473
1543 1541 1539 1537 1535 1534 1532 1530 1528 1526 1524 1523 1521 1521 1519 1519 1517 1517 1516 1516 1514 1514 1513 1513 1512 1511 1510 1508 1506 1505 1503 1501 1498 1496 1493 1490 1487 1485 1484 1482 1479 1475 1469
1540 1538 1537 1535 1534 1532 1531 1529 1527 1526 1524 1523 1522 1521 1520 1520 1518 1516 1515 1515 1513 1512 1512 1512 1511 1510 1509 1508 1506 1503 1501 1499 1497 1494 1491 1489 1485 1483 1481 1480 1477 1473 1468
1538 1536 1535 1533 1532 1531 1530 1528 1527 1525 1524 1523 1521 1521 1519 1519 1518 1519 1515 1513 1512 1511 1510 1510 1510 1508 1507 1506 1504 1502 1500 1497 1494 1491 1489 1486 1482 1480 1478 1477 1475 1472 1467
1536 1534 1532 1531 1530 1529 1528 1526 1525 1524 1523 1522 1521 1521 1519 1519 1517 1516 1516 1513 1511 1509 1509 1509 1507 1506 1506 1504 1502 1500 1497 1494 1491 1488 1487 1484 1479 1477 1475 1473 1473 1470 1466
1533 1532 1530 1529 1527 1526 1525 1523 1523 1522 1521 1520 1519 1518 1517 1517 1515 1514 1513 1512 1509 1507 1506 1507 1506 1505 1503 1502 1499 1497 1494 1491 1487 1484 1484 1480 1477 1475 1473 1471 1470 1468 1465
1529 1528 1526 1525 1524 1523 1522 1520 1519 1519 1518 1517 1517 1516 1515 1514 1513 1513 1511 1510 1508 1506 1505 1504 1503 1501 1500 1499 1497 1495 1492 1488 1485 1482 1481 1477 1475 1472 1471 1469 1468 1467 1465
1525 1524 1523 1522 1521 1520 1519 1518 1517 1516 1516 1515 1514 1514 1513 1511 1511 1510 1509 1509 1508 1506 1502 1501 1500 1499 1498 1496 1494 1492 1490 1487 1484 1481 1479 1475 1473 1471 1469 1467 1466 1465 1463
1522 1521 1520 1518 1517 1516 1515 1513 1514 1513 1512 1511 1511 1511 1510 1508 1508 1508 1507 1506 1505 1504 1501 1498 1497 1496 1495 1493 1491 1489 1487 1485 1482 1479 1477 1474 1472 1470 1467 1465 1464 1462 1461
1518 1517 1516 1515 1514 1513 1511 1510 1510 1509 1509 1507 1507 1507 1506 1505 1504 1504 1503 1503 1502 1500 1496 1493 1493 1493 1490 1489 1488 1487 1485 1482 1480 1477 1475 1473 1470 1469 1466 1464 1462 1460 1459
1516 1515 1514 1513 1512 1511 1509 1507 1507 1506 1506 1505 1503 1502 1502 1501 1500 1500 1499 1498 1497 1497 1493 1490 1489 1488 1487 1486 1484 1482 1481 1479 1476 1474 1472 1470 1468 1466 1465 1463 1460 1459 1457
1514 1514 1513 1511 1510 1510 1506 1505 1504 1503 1502 1501 1500 1499 1498 1497 1496 1495 1494 1493 1492 1491 1489 1486 1485 1484 1481 1481 1479 1478 1476 1474 1473 1470 1468 1467 1465 1463 1462 1460 1459 1457 1456
1514 1513 1512 1511 1508 1508 1505 1504 1502 1501 1500 1499 1497 1495 1494 1492 1491 1491 1490 1488 1487 1486 1485 1483 1480 1479 1478 1476 1474 1472 1470 1469 1467 1467 1465 1463 1461 1460 1459 1457 1456 1456 1454
1513 1512 1511 1509 1507 1505 1504 1502 1500 1498 1497 1496 1494 1493 1491 1489 1487 1486 1485 1483 1482 1480 1479 1478 1476 1474 1472 1472 1470 1467 1464 1463 1461 1460 1459 1458 1457 1457 1456 1455 1454 1453 1452
1511 1510 1509 1506 1505 1503 1501 1500 1498 1496 1495 1493 1492 1490 1488 1486 1484 1482 1481 1479 1477 1475 1473 1472 1470 1468 1467 1467 1466 1463 1460 1458 1456 1456 1454 1454 1453 1453 1452 1451 1450 1449 1449
1509 1507 1506 1504 1502 1500 1499 1498 1496 1495 1493 1491 1489 1487 1485 1483 1481 1479 1476 1475 1473 1471 1469 1467 1465 1464 1462 1461 1460 1458 1457 1454 1452 1452 1449 1445 1448 1448 1447 1446 1445 1445 1445
1506 1504 1503 1501 1499 1498 1496 1495 1493 1492 1490 1488 1487 1484 1482 1480 1478 1476 1474 1471 1470 1468 1465 1463 1461 1459 1457 1456 1454 1453 1450 1449 1447 1446 1445 1440 1439 1441 1441 1440 1439 1440 1440
1503 1501 1499 1497 1496 1494 1493 1491 1490 1489 1488 1485 1484 1482 1479 1477 1474 1472 1471 1469 1466 1465 1463 1459 1457 1454 1453 1451 1450 1447 1445 1443 1439 1438 1439 1437 1434 1435 1434 1434 1433 1434 1434
1499 1498 1496 1494 1493 1492 1490 1488 1486 1485 1484 1482 1480 1479 1476 1473 1471 1467 1465 1462 1460 1459 1456 1454 1453 1451 1449 1446 1445 1442 1441 1438 1436 1432 1432 1433 1432 1432 1431 1430 1429 1429 1430